Location: Unspecified
(41.4565°S, 0.0000°E)
Time: 07:56:16
(UTC+00:00)

Gurwin Techsat 1B - Visible Passes

Search period start: 04 April 2026 00:00
Search period end: 14 April 2026 00:00
Orbit: 809 x 812 km, 99.0° (Epoch: 28 March)

Date Brightness Start Highest point End Pass type
(mag) Time Alt. Az. Time Alt. Az. Time Alt. Az.
4 Apr 10.3 03:19:55 10° NE 03:24:33 31° ESE 03:29:14 10° S visible
4 Apr 9.2 04:59:26 10° NNW 05:04:16 35° W 05:09:12 10° SSW visible
4 Apr 11.5 18:56:22 10° SSW 18:58:59 14° WSW 19:01:36 10° W visible
5 Apr 11.0 02:57:26 10° ENE 03:01:13 20° ESE 03:05:02 10° SSE visible
5 Apr 8.6 04:35:21 10° N 04:40:35 58° WNW 04:45:55 10° SSW visible
5 Apr 11.3 18:31:44 10° SSW 18:35:44 22° WSW 18:39:42 10° WNW visible
6 Apr 11.5 02:35:43 10° E 02:37:59 13° ESE 02:40:15 10° SSE visible
6 Apr 8.6 04:11:39 10° NNE 04:16:59 87° ESE 04:22:24 10° SSW visible
6 Apr 10.5 18:07:37 10° S 18:12:24 33° WSW 18:17:08 10° NW visible
7 Apr 9.3 03:48:18 10° NNE 03:53:29 54° ESE 03:58:44 10° S visible
7 Apr 9.8 05:29:51 10° NW 05:33:38 19° W 05:37:27 10° SW visible
8 Apr 10.1 03:25:17 10° NE 03:30:03 34° ESE 03:34:51 10° S visible
8 Apr 9.3 05:05:08 10° NNW 05:09:51 32° W 05:14:38 10° SW visible
8 Apr 11.6 19:02:17 10° SSW 19:04:27 13° WSW 19:06:37 10° W visible
9 Apr 10.9 03:02:42 10° ENE 03:06:42 22° ESE 03:10:44 10° SSE visible
9 Apr 8.7 04:40:58 10° N 04:46:09 52° W 04:51:25 10° SSW visible
9 Apr 11.3 18:37:27 10° SSW 18:41:13 20° WSW 18:44:58 10° WNW visible
10 Apr 11.4 02:40:46 10° E 02:43:27 14° ESE 02:46:08 10° SSE visible
10 Apr 8.5 04:17:11 10° NNE 04:22:32 85° WNW 04:27:57 10° SSW visible
10 Apr 10.7 18:13:14 10° S 18:17:53 30° WSW 18:22:30 10° NW visible
11 Apr 9.1 03:53:45 10° NNE 03:59:00 60° ESE 04:04:18 10° S visible
11 Apr 9.9 05:35:44 10° NW 05:39:13 18° W 05:42:46 10° SW visible
12 Apr 10.0 03:30:40 10° NE 03:35:33 37° ESE 03:40:28 10° S visible
12 Apr 9.4 05:10:51 10° NNW 05:15:25 29° W 05:20:03 10° SW visible
12 Apr 11.7 19:08:19 10° SW 19:09:54 11° SW 19:11:29 10° WSW visible
13 Apr 10.7 03:07:59 10° ENE 03:12:11 24° ESE 03:16:25 10° SSE visible
13 Apr 8.8 04:46:35 10° N 04:51:42 47° W 04:56:53 10° SSW visible
13 Apr 11.3 18:43:09 10° SSW 18:46:41 18° WSW 18:50:11 10° WNW visible
